Location: Newark
(58.8333°N, 23.5833°E)
Time: 22:26:52
(UTC+00:00)

A-11 Canister half - Pass Details

Date: 19 November 2019
Orbit: 1515 x 1685 km, 47.2° (Epoch: 06 December)

Event Time Altitude Azimuth Distance (km) Brightness Sun altitude
Rises 22:13:52 0° 279° (W) 4,945 11.7 -50.7°
Enters shadow 22:15:08 - 276° (W) 4,614 11.5 -50.7°
Reaches altitude 10° 22:17:50 10° 267° (W) 3,950 - -50.7°
Maximum altitude 22:25:17 24° 219° (SW) 2,952 - -50.6°
Drops below altitude 10° 22:32:38 10° 170° (S) 3,881 - -50.5°
Sets 22:36:29 0° 158° (SSE) 4,839 - -50.5°
